When you browse on this site, cookies collect data to enhance your experience and personalize the content and advertising you see.
Visit our Privacy Policy to learn more. By continuing to use the site, you agree to this use of cookies and data.
  • In Österreich
  • Länderverzeichnis
  • Für 7 Tage
  • Wassertemperatur
  • Satellitenkarten
  • Wetterkarte
  • News
  • Widgets
  • user-avatar
    Anmelden

    Stündliche Wetter Kchulna

    Heute, 20 Juni, Donnerstag

    Zeit Temperatur Niederschläge Wind Luftdruck Luftfeuchtigkeit
    00:00 +32°C° 0 mm 2 m/S 750 mmHg 74%
    01:00 +32°C° 0 mm 1 m/S 749 mmHg 76%
    02:00 +32°C° 0 mm 1 m/S 749 mmHg 77%
    03:00 +31°C° 0 mm 1 m/S 749 mmHg 79%
    04:00 +31°C° 0 mm 1 m/S 749 mmHg 79%
    05:00 +31°C° 0 mm 1 m/S 749 mmHg 79%
    06:00 +30°C° 0 mm 0 m/S 750 mmHg 76%
    07:00 +33°C° 0 mm 1 m/S 750 mmHg 68%
    08:00 +35°C° 0 mm 1 m/S 750 mmHg 60%
    09:00 +37°C° 0 mm 2 m/S 751 mmHg 51%
    10:00 +38°C° 0 mm 2 m/S 751 mmHg 49%
    11:00 +39°C° 0 mm 3 m/S 750 mmHg 46%
    12:00 +40°C° 0 mm 4 m/S 750 mmHg 46%
    13:00 +38°C° 0 mm 4 m/S 750 mmHg 48%
    14:00 +38°C° 0 mm 3 m/S 749 mmHg 49%
    15:00 +38°C° 0 mm 3 m/S 748 mmHg 50%
    16:00 +37°C° 0 mm 3 m/S 748 mmHg 56%
    17:00 +35°C° 0 mm 3 m/S 748 mmHg 62%
    18:00 +34°C° 0 mm 4 m/S 748 mmHg 62%
    19:00 +34°C° 0 mm 3 m/S 749 mmHg 62%
    20:00 +33°C° 0 mm 3 m/S 749 mmHg 62%
    21:00 +32°C° 0 mm 2 m/S 750 mmHg 61%
    22:00 +33°C° 0 mm 3 m/S 750 mmHg 66%
    23:00 +31°C° 0 mm 3 m/S 750 mmHg 70%

    Morgen, 21 Juni, Freitag

    Zeit Temperatur Niederschläge Wind Luftdruck Luftfeuchtigkeit
    00:00 +31°C° 0 mm 3 m/S 750 mmHg 75%
    01:00 +31°C° 0.2 mm 2 m/S 750 mmHg 77%
    02:00 +30°C° 0.2 mm 1 m/S 749 mmHg 80%
    03:00 +28°C° 0.2 mm 0 m/S 749 mmHg 82%
    04:00 +30°C° 1 mm 1 m/S 749 mmHg 82%
    05:00 +30°C° 1 mm 2 m/S 749 mmHg 82%
    06:00 +30°C° 1 mm 2 m/S 750 mmHg 82%
    07:00 +31°C° 1.4 mm 3 m/S 750 mmHg 79%
    08:00 +31°C° 1.4 mm 3 m/S 750 mmHg 77%
    09:00 +33°C° 1.4 mm 4 m/S 751 mmHg 74%
    10:00 +35°C° 1.1 mm 5 m/S 751 mmHg 68%
    11:00 +36°C° 1.1 mm 5 m/S 750 mmHg 61%
    12:00 +39°C° 1.1 mm 6 m/S 750 mmHg 55%
    13:00 +39°C° 0 mm 6 m/S 750 mmHg 53%
    14:00 +39°C° 0 mm 6 m/S 749 mmHg 52%
    15:00 +40°C° 0 mm 6 m/S 748 mmHg 50%
    16:00 +38°C° 0 mm 6 m/S 748 mmHg 54%
    17:00 +36°C° 0 mm 6 m/S 748 mmHg 58%
    18:00 +35°C° 0 mm 5 m/S 748 mmHg 62%
    19:00 +34°C° 0 mm 5 m/S 749 mmHg 66%
    20:00 +33°C° 0 mm 5 m/S 750 mmHg 70%
    21:00 +32°C° 0 mm 4 m/S 750 mmHg 74%
    22:00 +32°C° 0 mm 4 m/S 751 mmHg 75%
    23:00 +32°C° 0 mm 4 m/S 751 mmHg 76%

    übermorgen, 22 Juni, Samstag

    Zeit Temperatur Niederschläge Wind Luftdruck Luftfeuchtigkeit
    00:00 +32°C° 0 mm 4 m/S 751 mmHg 77%
    01:00 +30°C° 0 mm 3 m/S 751 mmHg 78%
    02:00 +30°C° 0 mm 3 m/S 750 mmHg 79%
    03:00 +30°C° 0 mm 3 m/S 750 mmHg 80%
    04:00 +30°C° 0 mm 3 m/S 750 mmHg 80%
    05:00 +30°C° 0 mm 3 m/S 751 mmHg 81%
    06:00 +30°C° 0 mm 3 m/S 751 mmHg 82%
    07:00 +33°C° 0.1 mm 3 m/S 751 mmHg 74%
    08:00 +34°C° 0.1 mm 4 m/S 751 mmHg 67%
    09:00 +36°C° 0.1 mm 4 m/S 752 mmHg 60%
    10:00 +36°C° 0.3 mm 5 m/S 752 mmHg 58%
    11:00 +37°C° 0.3 mm 5 m/S 751 mmHg 55%
    12:00 +39°C° 0.3 mm 6 m/S 751 mmHg 53%
    13:00 +39°C° 0.1 mm 6 m/S 750 mmHg 52%
    14:00 +39°C° 0.1 mm 6 m/S 750 mmHg 51%
    15:00 +39°C° 0.1 mm 6 m/S 750 mmHg 50%
    16:00 +38°C° 0 mm 6 m/S 750 mmHg 54%
    17:00 +36°C° 0 mm 5 m/S 749 mmHg 57%
    18:00 +35°C° 0 mm 5 m/S 749 mmHg 61%
    19:00 +34°C° 0 mm 5 m/S 750 mmHg 65%
    20:00 +34°C° 0 mm 4 m/S 750 mmHg 70%
    21:00 +33°C° 0 mm 4 m/S 751 mmHg 74%
    22:00 +32°C° 0 mm 4 m/S 751 mmHg 75%
    23:00 +31°C° 0 mm 3 m/S 751 mmHg 76%

    23 Juni, Sonntag

    Zeit Temperatur Niederschläge Wind Luftdruck Luftfeuchtigkeit
    00:00 +31°C° 0 mm 3 m/S 751 mmHg 77%
    01:00 +31°C° 0 mm 3 m/S 751 mmHg 78%
    02:00 +30°C° 0 mm 3 m/S 750 mmHg 79%
    03:00 +30°C° 0 mm 2 m/S 750 mmHg 80%
    04:00 +30°C° 0 mm 2 m/S 751 mmHg 81%
    05:00 +30°C° 0 mm 2 m/S 751 mmHg 81%
    06:00 +30°C° 0 mm 2 m/S 751 mmHg 81%
    07:00 +32°C° 0 mm 2 m/S 752 mmHg 74%
    08:00 +34°C° 0 mm 3 m/S 752 mmHg 66%
    09:00 +36°C° 0 mm 3 m/S 752 mmHg 59%
    10:00 +36°C° 0.1 mm 3 m/S 752 mmHg 55%
    11:00 +37°C° 0.1 mm 3 m/S 751 mmHg 52%
    12:00 +38°C° 0.1 mm 4 m/S 751 mmHg 48%
    13:00 +40°C° 0 mm 4 m/S 750 mmHg 47%
    14:00 +40°C° 0 mm 4 m/S 750 mmHg 47%
    15:00 +40°C° 0 mm 4 m/S 749 mmHg 46%
    16:00 +39°C° 0 mm 5 m/S 749 mmHg 48%
    17:00 +39°C° 0 mm 5 m/S 749 mmHg 50%
    18:00 +37°C° 0 mm 5 m/S 749 mmHg 52%
    19:00 +36°C° 0 mm 5 m/S 749 mmHg 58%
    20:00 +34°C° 0 mm 5 m/S 750 mmHg 65%
    21:00 +33°C° 0 mm 5 m/S 750 mmHg 71%
    22:00 +33°C° 0 mm 4 m/S 750 mmHg 73%
    23:00 +32°C° 0 mm 4 m/S 751 mmHg 75%

    24 Juni, Montag

    Zeit Temperatur Niederschläge Wind Luftdruck Luftfeuchtigkeit
    00:00 +32°C° 0 mm 4 m/S 751 mmHg 77%
    01:00 +31°C° 0 mm 3 m/S 751 mmHg 79%
    02:00 +30°C° 0 mm 3 m/S 751 mmHg 80%
    03:00 +30°C° 0 mm 3 m/S 751 mmHg 81%
    04:00 +30°C° 0 mm 3 m/S 751 mmHg 81%
    05:00 +30°C° 0 mm 3 m/S 751 mmHg 82%
    06:00 +30°C° 0 mm 3 m/S 751 mmHg 82%
    07:00 +33°C° 0 mm 3 m/S 752 mmHg 74%
    08:00 +34°C° 0 mm 4 m/S 752 mmHg 66%
    09:00 +36°C° 0 mm 4 m/S 752 mmHg 58%
    10:00 +37°C° 0 mm 5 m/S 752 mmHg 53%
    11:00 +40°C° 0 mm 5 m/S 752 mmHg 48%
    12:00 +41°C° 0 mm 5 m/S 751 mmHg 43%
    13:00 +41°C° 0 mm 5 m/S 751 mmHg 42%
    14:00 +41°C° 0 mm 5 m/S 750 mmHg 42%
    15:00 +41°C° 0 mm 5 m/S 749 mmHg 41%
    16:00 +40°C° 0 mm 6 m/S 749 mmHg 46%
    17:00 +39°C° 0 mm 6 m/S 749 mmHg 50%
    18:00 +36°C° 0 mm 6 m/S 749 mmHg 54%
    19:00 +35°C° 0 mm 6 m/S 750 mmHg 59%
    20:00 +34°C° 0 mm 6 m/S 750 mmHg 63%
    21:00 +33°C° 0 mm 6 m/S 751 mmHg 68%
    22:00 +33°C° 0 mm 6 m/S 751 mmHg 70%
    23:00 +32°C° 0 mm 5 m/S 751 mmHg 73%

    25 Juni, Dienstag

    Zeit Temperatur Niederschläge Wind Luftdruck Luftfeuchtigkeit
    00:00 +32°C° 0 mm 5 m/S 751 mmHg 75%
    01:00 +32°C° 0 mm 5 m/S 751 mmHg 76%
    02:00 +32°C° 0 mm 5 m/S 751 mmHg 77%
    03:00 +32°C° 0 mm 5 m/S 750 mmHg 78%
    04:00 +32°C° 0 mm 5 m/S 750 mmHg 77%
    05:00 +32°C° 0 mm 5 m/S 750 mmHg 77%
    06:00 +30°C° 0 mm 5 m/S 751 mmHg 77%
    07:00 +33°C° 0 mm 6 m/S 751 mmHg 71%
    08:00 +34°C° 0 mm 6 m/S 751 mmHg 65%
    09:00 +36°C° 0 mm 6 m/S 752 mmHg 59%
    10:00 +38°C° 0 mm 6 m/S 751 mmHg 55%
    11:00 +39°C° 0 mm 6 m/S 751 mmHg 51%
    12:00 +40°C° 0 mm 6 m/S 750 mmHg 47%
    13:00 +40°C° 0 mm 6 m/S 750 mmHg 47%
    14:00 +40°C° 0 mm 6 m/S 749 mmHg 47%
    15:00 +40°C° 0 mm 6 m/S 749 mmHg 47%
    16:00 +39°C° 0 mm 6 m/S 748 mmHg 51%
    17:00 +38°C° 0 mm 6 m/S 748 mmHg 55%
    18:00 +36°C° 0 mm 7 m/S 748 mmHg 60%
    19:00 +35°C° 0 mm 6 m/S 749 mmHg 64%
    20:00 +34°C° 0 mm 5 m/S 750 mmHg 68%
    21:00 +33°C° 0 mm 5 m/S 751 mmHg 72%
    22:00 +33°C° 0 mm 4 m/S 750 mmHg 73%
    23:00 +32°C° 0 mm 4 m/S 750 mmHg 74%
    Mehr zeigen